Printer-friendly version

IAU Minor Planet Center

Minor Planet Center

MPEC 2003-J35 : 2003 JC11

The following Minor Planet Electronic Circular may be linked-to from your own Web pages, but must not otherwise be redistributed electronically.


Read MPEC 2003-J34 Read MPEC 2003-J36


M.P.E.C. 2003-J35                                Issued 2003 May 6, 18:44 UT

     The Minor Planet Electronic Circulars contain information on unusual
         minor planets and routine data on comets.  They are published
   on behalf of Commission 20 of the International Astronomical Union by the
          Minor Planet Center, Smithsonian Astrophysical Observatory,
                          Cambridge, MA 02138, U.S.A.

             Prepared using the Tamkin Foundation Computer Network

                              MPC@CFA.HARVARD.EDU
          URL http://cfa-www.harvard.edu/iau/mpc.html  ISSN 1523-6714

                                   2003 JC11

Observations:
     K03J11C* C2003 05 01.40315 16 20 38.20 -03 29 18.6          21.0 V      691
     K03J11C  C2003 05 01.43148 16 20 35.67 -03 29 36.3          20.9 V      691
     K03J11C  C2003 05 01.46018 16 20 33.17 -03 29 53.9          21.0 V      691
     K03J11C  C2003 05 02.33274 16 19 18.25 -03 38 52.4          21.7 V      291
     K03J11C  C2003 05 02.33666 16 19 17.90 -03 38 54.6          21.9 V      291
     K03J11C  C2003 05 02.34043 16 19 17.55 -03 38 57.2          21.3 V      291
     K03J11C  C2003 05 02.36251 16 19 15.48 -03 39 14.3          20.9 R      711
     K03J11C IC2003 05 02.37437 16 19 14.56 -03 39 18.8                      711
     K03J11C IC2003 05 02.38624 16 19 13.32 -03 39 24.8          20.9 R      711
     K03J11C  C2003 05 02.39068 16 19 13.03 -03 39 27.9          20.3 R      926
     K03J11C IC2003 05 02.39444 16 19 12.74 -03 39 31.2                      926
     K03J11C  C2003 05 02.40098 16 19 12.13 -03 39 34.4          20.7 R      926
     K03J11C  C2003 05 04.97952 16 15 24.95 -04 06 41.4                      246
     K03J11C  C2003 05 04.98069 16 15 24.85 -04 06 42.7                      246
     K03J11C  C2003 05 04.98347 16 15 24.55 -04 06 44.3                      246
     K03J11C  C2003 05 04.98577 16 15 24.39 -04 06 45.8                      246
     K03J11C  C2003 05 04.98833 16 15 24.15 -04 06 46.9                      246
     K03J11C  C2003 05 04.99024 16 15 23.95 -04 06 47.9                      246
     K03J11C  C2003 05 04.99160 16 15 23.79 -04 06 49.4                      246
     K03J11C  C2003 05 05.24007 16 15 01.86 -04 09 27.1          20.7 R      651
     K03J11C  C2003 05 05.24479 16 15 01.51 -04 09 29.4          20.7 R      651
     K03J11C  C2003 05 05.25994 16 15 00.05 -04 09 40.0          20.8 R      651
     K03J11C HC2003 05 05.29648 16 14 56.76 -04 10 03.7                      291
     K03J11C HC2003 05 05.30017 16 14 56.42 -04 10 05.6                      291
     K03J11C HC2003 05 05.30427 16 14 56.00 -04 10 08.8                      291
     K03J11C  C2003 05 06.38317 16 13 18.48 -04 21 46.0          21.3 V      291
     K03J11C  C2003 05 06.38735 16 13 18.07 -04 21 48.9          21.6 V      291
     K03J11C  C2003 05 06.39115 16 13 17.73 -04 21 51.4          21.6 V      291

Observer details:
246 Klet Observatory-KLENOT.  Observers J. Ticha, M. Tichy.  1.06-m KLENOT
    Telescope + CCD.
291 LPL/Spacewatch II.  Observers M. Block, A. S. Descour.  1.8-m f/2.7
    reflector + CCD.
651 Grasslands Observatory, Tucson.  Observer J. E. McGaha.  0.62-m f/5.1
    Newtonian + CCD.
691 Steward Observatory, Kitt Peak.  Observer J. V. Scotti.  0.9-m f/3
    reflector + CCD.
711 McDonald Observatory.  Observer J. G. Ries.  0.76-m reflector with prime
    focus corrector + CCD.
926 Tenagra II Observatory.  Observers P. R. Holvorcem, M. Schwartz.  0.81-m
    f/7 Ritchey-Chretien + CCD.

Orbital elements:
2003 JC11
Epoch 2003 May 1.0 TT = JDT 2452760.5                   MPC
M  28.17823              (2000.0)            P               Q
n   0.18456002     Peri.   70.52947     -0.70070212     -0.57271064
a   3.0552328      Node    72.15761     +0.36057701     -0.79884940
e   0.5585088      Incl.   26.54886     +0.61563038     -0.18396239
P   5.34           H   18.6           G   0.15
From 28 observations 2003 May 1-6.

Ephemeris:
2003 JC11                a,e,i = 3.06, 0.56, 27                  q = 1.3489
Date    TT    R. A. (2000) Decl.     Delta      r     Elong.  Phase     V
2003 05 01    16 21.21   -03 25.1    1.117    2.055   150.6    13.9    21.2
2003 05 11    16 06.25   -05 12.8    1.139    2.121   161.4     8.7    21.1
2003 05 21    15 50.96   -07 09.1    1.189    2.187   167.1     5.9    21.1
2003 05 31    15 37.05   -09 07.6    1.267    2.253   162.1     8.0    21.4
2003 06 10    15 25.79   -11 03.6    1.371    2.319   152.3    11.8    21.8

Kyle E. Smalley              (C) Copyright 2003 MPC           M.P.E.C. 2003-J35

Read MPEC 2003-J34 Read MPEC 2003-J36


Our Web policy. Index to the CBAT/MPC/ICQ pages.


Valid HTML 4.01!